{"data":{"norad_id":49301,"epoch":"2026-05-25T01:40:45.711264Z","epoch_age_seconds":62196,"freshness":"FRESH","line1":"1 49301U 21090Y   26145.06997351  .00000067  00000+0  13251-3 0  9994","line2":"2 49301  87.9174 279.0428 0002480  99.1829 260.9585 13.20772429227473","mean_motion":13.20772429,"eccentricity":0.000248,"inclination_deg":87.9174,"raan_deg":279.0428,"arg_perigee_deg":99.1829,"mean_anomaly_deg":260.9585,"bstar":0.00013251,"rev_number":22747,"period_min":109.02710931741,"perigee_km":1179.8961646919,"apogee_km":1183.6458790708,"semimajor_km":7559.9080218814,"source":"CELESTRAK","updated_at":"2026-05-25T13:38:22.524061Z"}}